• în România
  • Lista ţărilor
  • Pe 7 zile
  • Temperatura apei
  • Hartă satelitară
  • Meteo pe hartă
  • Widget-uri
  • user-avatar
    Intrare

    Meteo pe oră la Sumgait

    Astăzi, 24 Octombrie, Miercuri

    Timp Temperatura Precipitaţii Vânt Presiune Umiditate
    00:00 +17°C° 0 mm 2 m/s 739 mmHg 83%
    01:00 +17°C° 0 mm 2 m/s 739 mmHg 82%
    02:00 +17°C° 0 mm 2 m/s 739 mmHg 82%
    03:00 +17°C° 0 mm 3 m/s 738 mmHg 81%
    04:00 +17°C° 0 mm 3 m/s 738 mmHg 81%
    05:00 +17°C° 0 mm 3 m/s 738 mmHg 80%
    06:00 +17°C° 0 mm 4 m/s 738 mmHg 80%
    07:00 +17°C° 0 mm 5 m/s 737 mmHg 75%
    08:00 +19°C° 0 mm 5 m/s 737 mmHg 70%
    09:00 +20°C° 0 mm 6 m/s 737 mmHg 65%
    10:00 +21°C° 0 mm 7 m/s 737 mmHg 58%
    11:00 +22°C° 0 mm 7 m/s 736 mmHg 52%
    12:00 +23°C° 0 mm 8 m/s 735 mmHg 45%
    13:00 +24°C° 0 mm 8 m/s 735 mmHg 42%
    14:00 +24°C° 0 mm 8 m/s 734 mmHg 40%
    15:00 +24°C° 0 mm 8 m/s 733 mmHg 38%
    16:00 +23°C° 0 mm 8 m/s 733 mmHg 40%
    17:00 +23°C° 0 mm 8 m/s 733 mmHg 42%
    18:00 +22°C° 0 mm 8 m/s 732 mmHg 45%
    19:00 +22°C° 0 mm 7 m/s 732 mmHg 46%
    20:00 +22°C° 0 mm 7 m/s 732 mmHg 47%
    21:00 +21°C° 0 mm 7 m/s 731 mmHg 48%
    22:00 +21°C° 0 mm 7 m/s 731 mmHg 47%
    23:00 +21°C° 0 mm 7 m/s 731 mmHg 46%

    Mâine, 25 Octombrie, Joi

    Timp Temperatura Precipitaţii Vânt Presiune Umiditate
    00:00 +21°C° 0 mm 7 m/s 730 mmHg 45%
    01:00 +21°C° 0 mm 7 m/s 730 mmHg 43%
    02:00 +20°C° 0 mm 8 m/s 730 mmHg 41%
    03:00 +20°C° 0 mm 8 m/s 729 mmHg 39%
    04:00 +19°C° 0 mm 9 m/s 729 mmHg 39%
    05:00 +19°C° 0 mm 9 m/s 729 mmHg 38%
    06:00 +21°C° 0 mm 10 m/s 728 mmHg 38%
    07:00 +22°C° 0 mm 11 m/s 728 mmHg 36%
    08:00 +23°C° 0 mm 11 m/s 728 mmHg 34%
    09:00 +24°C° 0 mm 12 m/s 728 mmHg 32%
    10:00 +26°C° 0 mm 11 m/s 728 mmHg 31%
    11:00 +27°C° 0 mm 11 m/s 728 mmHg 30%
    12:00 +28°C° 0 mm 11 m/s 727 mmHg 29%
    13:00 +28°C° 0 mm 10 m/s 727 mmHg 28%
    14:00 +29°C° 0 mm 9 m/s 726 mmHg 28%
    15:00 +29°C° 0 mm 8 m/s 726 mmHg 27%
    16:00 +28°C° 0 mm 7 m/s 726 mmHg 30%
    17:00 +27°C° 0 mm 5 m/s 726 mmHg 33%
    18:00 +26°C° 0 mm 4 m/s 726 mmHg 36%
    19:00 +25°C° 0 mm 4 m/s 726 mmHg 38%
    20:00 +23°C° 0 mm 4 m/s 727 mmHg 41%
    21:00 +24°C° 0 mm 3 m/s 728 mmHg 44%
    22:00 +21°C° 0 mm 5 m/s 728 mmHg 52%
    23:00 +20°C° 0 mm 7 m/s 728 mmHg 60%

    Poimâine, 26 Octombrie, Vineri

    Timp Temperatura Precipitaţii Vânt Presiune Umiditate
    00:00 +18°C° 0 mm 8 m/s 729 mmHg 69%
    01:00 +17°C° 0 mm 9 m/s 729 mmHg 71%
    02:00 +16°C° 0 mm 10 m/s 730 mmHg 73%
    03:00 +16°C° 0 mm 11 m/s 730 mmHg 75%
    04:00 +14°C° 0.5 mm 11 m/s 731 mmHg 75%
    05:00 +14°C° 0.5 mm 12 m/s 731 mmHg 75%
    06:00 +13°C° 0.5 mm 12 m/s 732 mmHg 75%
    07:00 +13°C° 0.1 mm 11 m/s 733 mmHg 72%
    08:00 +14°C° 0.1 mm 10 m/s 734 mmHg 69%
    09:00 +15°C° 0.1 mm 9 m/s 734 mmHg 67%
    10:00 +15°C° 0.1 mm 9 m/s 735 mmHg 68%
    11:00 +13°C° 0.1 mm 9 m/s 735 mmHg 68%
    12:00 +13°C° 0.1 mm 9 m/s 735 mmHg 69%
    13:00 +13°C° 0 mm 9 m/s 735 mmHg 70%
    14:00 +12°C° 0 mm 9 m/s 736 mmHg 70%
    15:00 +12°C° 0 mm 9 m/s 736 mmHg 70%
    16:00 +12°C° 0.2 mm 9 m/s 737 mmHg 70%
    17:00 +11°C° 0.2 mm 9 m/s 737 mmHg 71%
    18:00 +11°C° 0.2 mm 9 m/s 738 mmHg 71%
    19:00 +11°C° 0.6 mm 8 m/s 739 mmHg 71%
    20:00 +11°C° 0.6 mm 6 m/s 740 mmHg 72%
    21:00 +12°C° 0.6 mm 5 m/s 740 mmHg 73%
    22:00 +12°C° 0.4 mm 5 m/s 740 mmHg 74%
    23:00 +12°C° 0.4 mm 4 m/s 741 mmHg 74%

    27 Octombrie, Sâmbătă

    Timp Temperatura Precipitaţii Vânt Presiune Umiditate
    00:00 +12°C° 0.4 mm 3 m/s 741 mmHg 75%
    01:00 +12°C° 0 mm 3 m/s 741 mmHg 75%
    02:00 +12°C° 0 mm 4 m/s 741 mmHg 74%
    03:00 +12°C° 0 mm 4 m/s 741 mmHg 74%
    04:00 +12°C° 0 mm 4 m/s 742 mmHg 71%
    05:00 +12°C° 0 mm 4 m/s 743 mmHg 68%
    06:00 +12°C° 0 mm 4 m/s 744 mmHg 64%
    07:00 +13°C° 0 mm 5 m/s 744 mmHg 61%
    08:00 +14°C° 0 mm 6 m/s 745 mmHg 57%
    09:00 +14°C° 0 mm 6 m/s 746 mmHg 53%
    10:00 +15°C° 0 mm 6 m/s 747 mmHg 51%
    11:00 +16°C° 0 mm 5 m/s 747 mmHg 48%
    12:00 +16°C° 0 mm 5 m/s 747 mmHg 46%
    13:00 +16°C° 0 mm 5 m/s 747 mmHg 47%
    14:00 +17°C° 0 mm 4 m/s 747 mmHg 48%
    15:00 +17°C° 0 mm 4 m/s 748 mmHg 49%
    16:00 +17°C° 0 mm 4 m/s 748 mmHg 53%
    17:00 +16°C° 0 mm 3 m/s 748 mmHg 58%
    18:00 +14°C° 0 mm 3 m/s 748 mmHg 62%
    19:00 +14°C° 0 mm 3 m/s 749 mmHg 66%
    20:00 +14°C° 0 mm 3 m/s 749 mmHg 69%
    21:00 +14°C° 0 mm 4 m/s 749 mmHg 72%
    22:00 +14°C° 0 mm 4 m/s 749 mmHg 74%
    23:00 +14°C° 0 mm 4 m/s 749 mmHg 75%

    28 Octombrie, Duminică

    Timp Temperatura Precipitaţii Vânt Presiune Umiditate
    00:00 +14°C° 0 mm 4 m/s 748 mmHg 76%
    01:00 +14°C° 0 mm 4 m/s 748 mmHg 75%
    02:00 +13°C° 0 mm 4 m/s 748 mmHg 75%
    03:00 +13°C° 0 mm 4 m/s 748 mmHg 75%
    04:00 +13°C° 0 mm 4 m/s 748 mmHg 75%
    05:00 +13°C° 0 mm 4 m/s 748 mmHg 74%
    06:00 +13°C° 0 mm 4 m/s 748 mmHg 74%
    07:00 +14°C° 0 mm 5 m/s 749 mmHg 71%
    08:00 +15°C° 0 mm 5 m/s 749 mmHg 67%
    09:00 +16°C° 0 mm 5 m/s 749 mmHg 63%
    10:00 +16°C° 0 mm 5 m/s 749 mmHg 59%
    11:00 +17°C° 0 mm 5 m/s 748 mmHg 55%
    12:00 +19°C° 0 mm 6 m/s 748 mmHg 51%
    13:00 +19°C° 0 mm 6 m/s 748 mmHg 50%
    14:00 +19°C° 0 mm 5 m/s 748 mmHg 48%
    15:00 +19°C° 0 mm 5 m/s 748 mmHg 46%
    16:00 +19°C° 0 mm 5 m/s 748 mmHg 50%
    17:00 +17°C° 0 mm 5 m/s 748 mmHg 53%
    18:00 +17°C° 0 mm 4 m/s 748 mmHg 56%
    19:00 +17°C° 0 mm 4 m/s 748 mmHg 58%
    20:00 +17°C° 0 mm 4 m/s 749 mmHg 60%
    21:00 +15°C° 0 mm 4 m/s 749 mmHg 62%
    22:00 +16°C° 0 mm 3 m/s 749 mmHg 63%
    23:00 +16°C° 0 mm 3 m/s 749 mmHg 64%

    29 Octombrie, Luni

    Timp Temperatura Precipitaţii Vânt Presiune Umiditate
    00:00 +16°C° 0 mm 3 m/s 749 mmHg 66%
    01:00 +15°C° 0 mm 2 m/s 748 mmHg 66%
    02:00 +15°C° 0 mm 2 m/s 748 mmHg 65%
    03:00 +15°C° 0 mm 2 m/s 748 mmHg 65%
    04:00 +15°C° 0 mm 2 m/s 749 mmHg 65%
    05:00 +14°C° 0 mm 2 m/s 749 mmHg 65%
    06:00 +14°C° 0 mm 2 m/s 749 mmHg 65%
    07:00 +15°C° 0 mm 2 m/s 749 mmHg 61%
    08:00 +17°C° 0 mm 2 m/s 749 mmHg 57%
    09:00 +18°C° 0 mm 3 m/s 749 mmHg 53%
    10:00 +19°C° 0 mm 3 m/s 749 mmHg 50%
    11:00 +19°C° 0 mm 3 m/s 749 mmHg 48%
    12:00 +20°C° 0 mm 4 m/s 749 mmHg 45%
    13:00 +20°C° 0 mm 4 m/s 748 mmHg 45%
    14:00 +20°C° 0 mm 4 m/s 748 mmHg 46%
    15:00 +21°C° 0 mm 4 m/s 748 mmHg 47%
    16:00 +20°C° 0 mm 5 m/s 748 mmHg 53%
    17:00 +19°C° 0 mm 5 m/s 748 mmHg 59%
    18:00 +17°C° 0 mm 5 m/s 748 mmHg 65%
    19:00 +17°C° 0 mm 5 m/s 748 mmHg 68%
    20:00 +17°C° 0 mm 4 m/s 748 mmHg 71%
    21:00 +17°C° 0 mm 4 m/s 748 mmHg 74%
    22:00 +17°C° 0 mm 4 m/s 748 mmHg 76%
    23:00 +15°C° 0 mm 4 m/s 748 mmHg 77%

    30 Octombrie, Marţi

    Timp Temperatura Precipitaţii Vânt Presiune Umiditate
    00:00 +15°C° 0 mm 4 m/s 748 mmHg 79%
    01:00 +15°C° 0 mm 4 m/s 747 mmHg 79%
    02:00 +15°C° 0 mm 4 m/s 747 mmHg 79%
    03:00 +14°C° 0 mm 4 m/s 747 mmHg 80%
    04:00 +14°C° 0 mm 4 m/s 747 mmHg 80%
    05:00 +14°C° 0 mm 4 m/s 747 mmHg 80%
    06:00 +14°C° 0 mm 4 m/s 747 mmHg 81%
    07:00 +15°C° 0 mm 4 m/s 747 mmHg 76%
    08:00 +17°C° 0 mm 4 m/s 747 mmHg 72%
    09:00 +17°C° 0 mm 5 m/s 747 mmHg 67%
    10:00 +19°C° 0 mm 5 m/s 747 mmHg 62%
    11:00 +20°C° 0 mm 5 m/s 747 mmHg 57%
    12:00 +20°C° 0 mm 5 m/s 746 mmHg 52%
    13:00 +21°C° 0 mm 5 m/s 746 mmHg 52%
    14:00 +21°C° 0 mm 5 m/s 746 mmHg 51%
    15:00 +21°C° 0 mm 5 m/s 745 mmHg 51%
    16:00 +20°C° 0 mm 5 m/s 745 mmHg 56%
    17:00 +19°C° 0 mm 5 m/s 745 mmHg 62%
    18:00 +17°C° 0 mm 5 m/s 745 mmHg 67%
    19:00 +18°C° 0 mm 4 m/s 745 mmHg 70%
    20:00 +17°C° 0 mm 4 m/s 745 mmHg 73%
    21:00 +17°C° 0 mm 4 m/s 745 mmHg 76%
    22:00 +17°C° 0 mm 4 m/s 745 mmHg 78%
    23:00 +17°C° 0 mm 3 m/s 744 mmHg 80%
    Arată mai mult